Location: Proctor
(47.8934°N, 114.3048°W)
Time: 21:45:26
(UTC+00:00)

Tiros 1 despin weight - Pass Details

Date: 30 June 2024
Orbit: 576 x 620 km, 48.2° (Epoch: 19 July)

Event Time Altitude Azimuth Distance (km) Brightness Sun altitude
Rises 20:40:55 0° 282° (WNW) 2,892 ? 62.5°
Reaches altitude 10° 20:43:13 10° 280° (W) 1,988 ? 62.3°
Maximum altitude 20:47:47 74° 197° (SSW) 649 ? 61.9°
Drops below altitude 10° 20:52:21 10° 112° (ESE) 1,982 ? 61.4°
Sets 20:54:39 0° 111° (ESE) 2,883 ? 61.2°
